Regional Weather Roundup
Issued by NWS

Home | Current Version | Previous Version | Graphics & Text | Print | Product List | Glossary On
Versions: 1 2 3 4 5 6 7 8 9 10 11 12 13 14 15 16 17 18 19 20 21 22 23 24 25 26 27 28 29 30 31 32 33 34 35 36 37 38 39 40 41 42 43 44 45 46 47 48 49 50
000
ASUS43 KFSD 302002
RWRSD

WEATHER ROUNDUP FOR SOUTH DAKOTA
NATIONAL WEATHER SERVICE SIOUX FALLS SD
300 PM CDT SAT APR 30 2016

NOTE: "FAIR" INDICATES FEW OR NO CLOUDS BELOW 12,000 FEET WITH NO
SIGNIFICANT WEATHER AND/OR OBSTRUCTIONS TO VISIBILITY.


SDZ001>005-009-010-012>017-302100-
NORTHWEST AND NORTH CENTRAL SOUTH DAKOTA

CITY           SKY/WX    TMP DP  RH WIND       PRES   REMARKS
BUFFALO          N/A     54  32  43 E17G25    30.09S
FAITH            N/A     53  31  42 NE23G33   30.10S
MOBRIDGE       CLOUDY    60  32  34 NE25G35   30.08F
$$

SDZ012>016-024>037-041>051-057-063-072>074-302100-
SOUTHWEST AND SOUTH CENTRAL SOUTH DAKOTA

CITY           SKY/WX    TMP DP  RH WIND       PRES   REMARKS
RAPID CTY ARPT CLOUDY    48  36  63 N20       30.09R
PIERRE         CLOUDY    53  35  50 NE26G32   30.01F
CUSTER         CLOUDY    35  28  75 NE15G26   30.05R WCI  25
ELLSWORTH AFB  CLOUDY    48  34  57 NE18G25   30.08S
PHILIP         CLOUDY    52  31  44 NE28G40   30.04S
PINE RIDGE     LGT RAIN  42  34  73 NE24G35   30.00S
WINNER         LGT RAIN  45  39  79 NE16G31   29.96R
$$

SDZ004>011-016>023-039-040-302100-
NORTHEAST SOUTH DAKOTA

CITY           SKY/WX    TMP DP  RH WIND       PRES   REMARKS
ABERDEEN       PTSUNNY   58  36  43 NE24G32   30.07F
WATERTOWN      CLOUDY    52  35  52 E22G36    30.02R
BROOKINGS      CLOUDY    47  37  68 NE17G29   29.97S
SISSETON         N/A     59  34  39 E20G31    30.06F
$$

SDZ017-020-022-023-036>040-048>070-302100-
SOUTHEAST SOUTH DAKOTA

CITY           SKY/WX    TMP DP  RH WIND       PRES   REMARKS
SIOUX FALLS    LGT RAIN  45  41  86 NE31G43   29.90S FOG
HURON          CLOUDY    50  37  61 NE22G32   30.00R
MITCHELL       RAIN      45  43  93 NE24G32   29.96R FOG
YANKTON        CLOUDY    45  43  93 NE23      29.86R
$$

ABBREVIATIONS USED IN REMARKS
   TC - TEMPERATURE IN CELSIUS
  WCI - WIND CHILL INDEX
   HX - HEAT INDEX
  VSB - VISIBILITY





USA.gov is the U.S. government's official web portal to all federal, state and local government web resources and services.